URO6578 EINN-EGNV

Flight info

Callsign URO6578
Flight time 0h 47m
Altitude 31000
Route TOMTO3A TOMTO Q37 KLY Q36 ALAVA Z195 MALUD UL975 BARTN P17 POL P18 GASKO
Aircraft A346/H-SDE2E3FGHIJ3J4J5M1RWXY/LB1D1

Departure

Time 2026-05-05 11:57
Airport Shannon Airport (EINN)

Arrival

Time 2026-05-05 12:44
Airport Teesside International Airport (EGNV)
Time Latitude Longitude Altitude Speed Heading
2026-05-05 11:40 52.70063 -8.90942 59 ft 0 kts 201°
2026-05-05 11:48 52.70058 -8.90945 59 ft 2 kts 204°
2026-05-05 11:48 52.70036 -8.90975 59 ft 6 kts 223°
2026-05-05 11:49 52.69999 -8.91039 59 ft 9 kts 237°
2026-05-05 11:49 52.69950 -8.91135 59 ft 12 kts 213°
2026-05-05 11:49 52.69861 -8.91192 59 ft 14 kts 199°
2026-05-05 11:49 52.69756 -8.91252 59 ft 17 kts 199°
2026-05-05 11:50 52.69637 -8.91319 59 ft 18 kts 198°
2026-05-05 11:50 52.69507 -8.91389 59 ft 20 kts 198°
2026-05-05 11:50 52.69383 -8.91457 59 ft 13 kts 198°
2026-05-05 11:50 52.69294 -8.91506 59 ft 9 kts 201°
2026-05-05 11:51 52.69265 -8.91584 59 ft 9 kts 280°
2026-05-05 11:51 52.69306 -8.91695 59 ft 12 kts 314°
2026-05-05 11:51 52.69384 -8.91773 59 ft 13 kts 321°
2026-05-05 11:51 52.69440 -8.91903 59 ft 15 kts 290°
2026-05-05 11:52 52.69469 -8.92083 59 ft 17 kts 282°
2026-05-05 11:52 52.69510 -8.92274 59 ft 18 kts 297°
2026-05-05 11:52 52.69590 -8.92444 59 ft 19 kts 315°
2026-05-05 11:52 52.69691 -8.92606 59 ft 21 kts 316°
2026-05-05 11:53 52.69801 -8.92780 59 ft 22 kts 316°
2026-05-05 11:53 52.69896 -8.92934 59 ft 17 kts 315°
2026-05-05 11:53 52.69913 -8.93093 59 ft 15 kts 237°
2026-05-05 11:53 52.69840 -8.93248 59 ft 19 kts 232°
2026-05-05 11:54 52.69744 -8.93450 59 ft 24 kts 232°
2026-05-05 11:54 52.69633 -8.93683 59 ft 26 kts 232°
2026-05-05 11:54 52.69518 -8.93928 59 ft 27 kts 231°
2026-05-05 11:54 52.69414 -8.94144 59 ft 15 kts 227°
2026-05-05 11:55 52.69341 -8.94219 59 ft 9 kts 204°
2026-05-05 11:55 52.69310 -8.94271 59 ft 4 kts 262°
2026-05-05 11:55 52.69316 -8.94290 59 ft 1 kts 334°
2026-05-05 11:55 52.69334 -8.94285 59 ft 4 kts 21°
2026-05-05 11:56 52.69363 -8.94249 59 ft 3 kts 47°
2026-05-05 11:56 52.69368 -8.94240 59 ft 1 kts 49°
2026-05-05 11:56 52.69523 -8.93917 59 ft 76 kts 51°
2026-05-05 11:56 52.70000 -8.92898 59 ft 146 kts 51°
2026-05-05 11:57 52.70712 -8.91367 278 ft 180 kts 51°
2026-05-05 11:57 52.71433 -8.89710 986 ft 180 kts 58°
2026-05-05 11:57 52.71954 -8.87812 1699 ft 186 kts 67°
2026-05-05 11:57 52.72404 -8.85777 2261 ft 195 kts 68°
2026-05-05 11:58 52.72871 -8.83582 2666 ft 212 kts 69°
2026-05-05 11:58 52.73372 -8.81221 3061 ft 229 kts 68°
2026-05-05 11:58 52.73927 -8.78625 3449 ft 251 kts 68°
2026-05-05 11:58 52.74536 -8.75783 3977 ft 270 kts 68°
2026-05-05 11:59 52.75172 -8.72819 4719 ft 280 kts 69°
2026-05-05 11:59 52.75822 -8.69782 5604 ft 284 kts 69°
2026-05-05 11:59 52.76485 -8.66686 6475 ft 290 kts 69°
2026-05-05 11:59 52.77153 -8.63566 7321 ft 295 kts 69°
2026-05-05 12:00 52.77842 -8.60342 8177 ft 301 kts 69°
2026-05-05 12:00 52.78542 -8.57063 9026 ft 307 kts 69°
2026-05-05 12:00 52.79254 -8.53717 9872 ft 313 kts 70°
2026-05-05 12:00 52.79974 -8.50333 10661 ft 320 kts 70°
2026-05-05 12:01 52.80733 -8.46756 11192 ft 337 kts 70°
2026-05-05 12:01 52.81532 -8.42981 11657 ft 356 kts 70°
2026-05-05 12:01 52.82360 -8.39060 12098 ft 375 kts 71°
2026-05-05 12:01 52.83242 -8.34872 12519 ft 394 kts 71°
2026-05-05 12:02 52.84173 -8.30450 12959 ft 412 kts 71°
2026-05-05 12:02 52.85121 -8.25935 13663 ft 420 kts 71°
2026-05-05 12:02 52.86077 -8.21368 14440 ft 426 kts 71°
2026-05-05 12:02 52.87046 -8.16734 15162 ft 433 kts 72°
2026-05-05 12:03 52.88038 -8.11945 15864 ft 440 kts 72°
2026-05-05 12:03 52.89015 -8.07148 16546 ft 446 kts 72°
2026-05-05 12:03 52.90011 -8.02229 17225 ft 453 kts 72°
2026-05-05 12:03 52.91013 -7.97264 17883 ft 460 kts 72°
2026-05-05 12:04 52.92027 -7.92225 18528 ft 466 kts 72°
2026-05-05 12:04 52.93064 -7.87066 19164 ft 472 kts 72°
2026-05-05 12:04 52.94094 -7.81933 19774 ft 479 kts 72°
2026-05-05 12:04 52.95163 -7.76590 20388 ft 485 kts 72°
2026-05-05 12:05 52.96220 -7.71290 20978 ft 491 kts 72°
2026-05-05 12:05 52.97294 -7.65891 21562 ft 497 kts 73°
2026-05-05 12:05 52.98380 -7.60419 22146 ft 503 kts 73°
2026-05-05 12:05 52.99479 -7.54876 22729 ft 508 kts 73°
2026-05-05 12:06 53.00594 -7.49253 23293 ft 513 kts 73°
2026-05-05 12:06 53.01714 -7.43587 23843 ft 519 kts 73°
2026-05-05 12:06 53.02834 -7.37897 24501 ft 521 kts 73°
2026-05-05 12:06 53.03961 -7.32151 25294 ft 519 kts 75°
2026-05-05 12:07 53.05071 -7.26467 26043 ft 518 kts 75°
2026-05-05 12:07 53.06177 -7.20770 26727 ft 519 kts 75°
2026-05-05 12:07 53.07283 -7.15060 27369 ft 520 kts 75°
2026-05-05 12:07 53.08385 -7.09346 27989 ft 521 kts 75°
2026-05-05 12:08 53.09486 -7.03621 28588 ft 523 kts 75°
2026-05-05 12:08 53.10525 -6.98206 29127 ft 524 kts 75°
2026-05-05 12:08 53.11655 -6.92304 29661 ft 527 kts 75°
2026-05-05 12:08 53.12776 -6.86445 30126 ft 530 kts 74°
2026-05-05 12:09 53.13907 -6.80519 30555 ft 535 kts 74°
2026-05-05 12:09 53.15038 -6.74563 30955 ft 539 kts 75°
2026-05-05 12:09 53.16167 -6.68609 31092 ft 542 kts 74°
2026-05-05 12:09 53.17298 -6.62614 31096 ft 554 kts 74°
2026-05-05 12:10 53.18461 -6.56417 31095 ft 568 kts 74°
2026-05-05 12:10 53.19655 -6.50022 31097 ft 581 kts 74°
2026-05-05 12:10 53.20860 -6.43560 31096 ft 592 kts 74°
2026-05-05 12:10 53.22090 -6.36961 31093 ft 598 kts 74°
2026-05-05 12:11 53.24558 -6.23679 31088 ft 598 kts 75°
2026-05-05 12:11 53.27243 -6.10259 31089 ft 600 kts 70°
2026-05-05 12:12 53.30658 -5.97599 31091 ft 601 kts 64°
2026-05-05 12:12 53.34414 -5.85060 31090 ft 601 kts 63°
2026-05-05 12:13 53.38103 -5.72540 31090 ft 601 kts 64°
2026-05-05 12:13 53.41641 -5.59923 31089 ft 600 kts 69°
2026-05-05 12:14 53.43893 -5.46506 31088 ft 592 kts 84°
2026-05-05 12:14 53.44320 -5.39798 31088 ft 580 kts 91°
2026-05-05 12:14 53.44322 -5.33026 31084 ft 560 kts 98°
2026-05-05 12:15 53.44117 -5.26761 31082 ft 544 kts 100°
2026-05-05 12:15 53.43895 -5.20985 31081 ft 531 kts 101°
2026-05-05 12:15 53.43480 -5.08705 31088 ft 527 kts 100°
2026-05-05 12:16 53.43115 -4.97495 31089 ft 528 kts 100°
2026-05-05 12:16 53.42716 -4.85376 31089 ft 531 kts 99°
2026-05-05 12:17 53.42300 -4.72983 31089 ft 533 kts 99°
2026-05-05 12:17 53.41878 -4.60619 31090 ft 533 kts 99°
2026-05-05 12:18 53.41441 -4.48237 31090 ft 533 kts 99°
2026-05-05 12:18 53.40992 -4.35858 31052 ft 530 kts 99°
2026-05-05 12:19 53.40767 -4.29688 30684 ft 526 kts 100°
2026-05-05 12:19 53.40538 -4.23611 30174 ft 525 kts 100°
2026-05-05 12:19 53.40305 -4.17529 29742 ft 521 kts 100°
2026-05-05 12:19 53.40068 -4.11444 29291 ft 518 kts 100°
2026-05-05 12:20 53.39831 -4.05443 28773 ft 516 kts 100°
2026-05-05 12:20 53.39649 -3.99655 28231 ft 518 kts 97°
2026-05-05 12:20 53.39672 -3.93590 27662 ft 521 kts 92°
2026-05-05 12:20 53.39917 -3.87516 27102 ft 522 kts 89°
2026-05-05 12:21 53.40250 -3.81429 26541 ft 521 kts 88°
2026-05-05 12:21 53.40588 -3.75464 25984 ft 520 kts 88°
2026-05-05 12:21 53.40911 -3.69399 25402 ft 518 kts 89°
2026-05-05 12:21 53.41162 -3.63339 24809 ft 515 kts 92°
2026-05-05 12:22 53.41179 -3.57363 24212 ft 511 kts 96°
2026-05-05 12:22 53.40973 -3.51329 23593 ft 508 kts 99°
2026-05-05 12:22 53.40693 -3.45376 23070 ft 504 kts 99°
2026-05-05 12:22 53.40402 -3.39479 22644 ft 498 kts 99°
2026-05-05 12:23 53.40126 -3.33765 22195 ft 493 kts 100°
2026-05-05 12:23 53.39858 -3.28063 21717 ft 488 kts 99°
2026-05-05 12:23 53.39597 -3.22440 21244 ft 483 kts 99°
2026-05-05 12:23 53.39457 -3.16791 20741 ft 484 kts 90°
2026-05-05 12:24 53.40228 -3.11208 20205 ft 486 kts 68°
2026-05-05 12:24 53.41790 -3.06218 19778 ft 480 kts 58°
2026-05-05 12:24 53.43570 -3.01461 19305 ft 475 kts 57°
2026-05-05 12:24 53.45125 -2.97358 18878 ft 472 kts 57°
2026-05-05 12:25 53.46875 -2.92592 18394 ft 467 kts 58°
2026-05-05 12:25 53.48539 -2.87893 17924 ft 463 kts 59°
2026-05-05 12:25 53.50155 -2.83208 17458 ft 458 kts 60°
2026-05-05 12:25 53.51743 -2.78531 16994 ft 454 kts 60°
2026-05-05 12:26 53.53284 -2.73955 16541 ft 450 kts 60°
2026-05-05 12:26 53.54823 -2.69362 16085 ft 445 kts 60°
2026-05-05 12:26 53.56363 -2.64756 15627 ft 441 kts 60°
2026-05-05 12:26 53.57856 -2.60282 15179 ft 437 kts 60°
2026-05-05 12:27 53.59339 -2.55829 14731 ft 433 kts 60°
2026-05-05 12:27 53.60811 -2.51402 14281 ft 429 kts 60°
2026-05-05 12:27 53.62262 -2.47029 13832 ft 425 kts 60°
2026-05-05 12:27 53.63701 -2.42690 13381 ft 421 kts 60°
2026-05-05 12:28 53.65127 -2.38376 12954 ft 416 kts 60°
2026-05-05 12:28 53.66558 -2.34044 12596 ft 409 kts 61°
2026-05-05 12:28 53.67931 -2.29880 12118 ft 406 kts 61°
2026-05-05 12:28 53.69291 -2.25742 11416 ft 393 kts 61°
2026-05-05 12:29 53.70578 -2.21812 10792 ft 378 kts 61°
2026-05-05 12:29 53.71835 -2.17961 10261 ft 362 kts 60°
2026-05-05 12:29 53.73239 -2.14637 9881 ft 340 kts 39°
2026-05-05 12:29 53.75202 -2.12817 9585 ft 317 kts
2026-05-05 12:30 53.77369 -2.12118 9298 ft 309 kts
2026-05-05 12:30 53.79478 -2.11562 9001 ft 306 kts
2026-05-05 12:30 53.81554 -2.10959 8702 ft 302 kts
2026-05-05 12:30 53.83614 -2.10295 8401 ft 299 kts
2026-05-05 12:31 53.85663 -2.09586 8118 ft 295 kts
2026-05-05 12:31 53.87645 -2.08869 8037 ft 283 kts
2026-05-05 12:31 53.89511 -2.08175 8031 ft 274 kts
2026-05-05 12:31 53.91370 -2.07482 8035 ft 273 kts
2026-05-05 12:32 53.93209 -2.06791 8028 ft 272 kts
2026-05-05 12:32 53.95093 -2.06084 8030 ft 274 kts
2026-05-05 12:32 53.96940 -2.05382 8026 ft 268 kts
2026-05-05 12:32 53.98743 -2.04698 8027 ft 268 kts
2026-05-05 12:33 54.00588 -2.04000 8023 ft 272 kts
2026-05-05 12:33 54.02431 -2.03299 8026 ft 269 kts
2026-05-05 12:33 54.04260 -2.02603 8024 ft 272 kts
2026-05-05 12:33 54.06114 -2.01900 7844 ft 272 kts
2026-05-05 12:34 54.07959 -2.01200 7477 ft 272 kts
2026-05-05 12:34 54.09787 -2.00504 7157 ft 270 kts
2026-05-05 12:34 54.11526 -1.99839 6878 ft 267 kts
2026-05-05 12:34 54.13259 -1.98730 6568 ft 270 kts 24°
2026-05-05 12:35 54.14882 -1.97071 6275 ft 268 kts 28°
2026-05-05 12:35 54.16433 -1.95351 5981 ft 266 kts 29°
2026-05-05 12:35 54.17973 -1.93620 5687 ft 263 kts 29°
2026-05-05 12:35 54.19491 -1.91915 5397 ft 260 kts 29°
2026-05-05 12:36 54.21001 -1.90227 5112 ft 257 kts 29°
2026-05-05 12:36 54.22489 -1.88570 5029 ft 245 kts 29°
2026-05-05 12:36 54.23897 -1.86998 5019 ft 231 kts 29°
2026-05-05 12:36 54.25207 -1.85527 5011 ft 217 kts 29°
2026-05-05 12:37 54.26431 -1.84140 5028 ft 200 kts 29°
2026-05-05 12:37 54.27542 -1.82860 5009 ft 184 kts 29°
2026-05-05 12:37 54.28596 -1.81637 4998 ft 183 kts 29°
2026-05-05 12:37 54.29686 -1.80481 4771 ft 180 kts 24°
2026-05-05 12:38 54.30784 -1.79402 4516 ft 180 kts 28°
2026-05-05 12:38 54.31804 -1.78100 4263 ft 180 kts 36°
2026-05-05 12:38 54.32736 -1.76651 3909 ft 183 kts 38°
2026-05-05 12:38 54.33668 -1.75120 3551 ft 183 kts 40°
2026-05-05 12:39 54.34555 -1.73579 3493 ft 178 kts 42°
2026-05-05 12:39 54.35418 -1.72031 3493 ft 178 kts 43°
2026-05-05 12:39 54.36271 -1.70461 3491 ft 178 kts 43°
2026-05-05 12:39 54.37112 -1.68891 3490 ft 178 kts 43°
2026-05-05 12:40 54.37954 -1.67308 3489 ft 178 kts 43°
2026-05-05 12:40 54.38799 -1.65713 3402 ft 178 kts 44°
2026-05-05 12:40 54.39636 -1.64132 3158 ft 173 kts 44°
2026-05-05 12:40 54.40425 -1.62640 2927 ft 166 kts 44°
2026-05-05 12:41 54.41187 -1.61203 2704 ft 157 kts 44°
2026-05-05 12:41 54.41927 -1.59815 2507 ft 156 kts 44°
2026-05-05 12:41 54.42672 -1.58417 2309 ft 156 kts 44°
2026-05-05 12:41 54.43403 -1.57043 2110 ft 155 kts 44°
2026-05-05 12:42 54.44133 -1.55670 1907 ft 155 kts 44°
2026-05-05 12:42 54.44867 -1.54289 1697 ft 154 kts 45°
2026-05-05 12:42 54.45588 -1.52936 1488 ft 154 kts 45°
2026-05-05 12:42 54.46321 -1.51560 1275 ft 153 kts 45°
2026-05-05 12:43 54.47030 -1.50228 1056 ft 145 kts 45°
2026-05-05 12:43 54.47721 -1.48933 868 ft 144 kts 45°
2026-05-05 12:43 54.48402 -1.47657 684 ft 144 kts 45°
2026-05-05 12:43 54.49093 -1.46361 491 ft 144 kts 46°
2026-05-05 12:44 54.49770 -1.45091 298 ft 143 kts 46°
2026-05-05 12:44 54.50455 -1.43810 139 ft 133 kts 47°
2026-05-05 12:44 54.50967 -1.42851 138 ft 82 kts 46°
2026-05-05 12:44 54.51246 -1.42330 138 ft 41 kts 47°
2026-05-05 12:45 54.51416 -1.42010 138 ft 30 kts 47°
2026-05-05 12:45 54.51527 -1.41803 138 ft 14 kts 47°
2026-05-05 12:45 54.51577 -1.41712 138 ft 3 kts 31°
2026-05-05 12:45 54.51589 -1.41727 138 ft 2 kts 278°
2026-05-05 12:46 54.51567 -1.41772 138 ft 7 kts 211°
2026-05-05 12:46 54.51510 -1.41839 138 ft 12 kts 220°
2026-05-05 12:46 54.51435 -1.41972 138 ft 17 kts 227°
2026-05-05 12:46 54.51339 -1.42154 138 ft 22 kts 227°
2026-05-05 12:47 54.51227 -1.42368 138 ft 24 kts 227°
2026-05-05 12:47 54.51121 -1.42567 138 ft 19 kts 226°
2026-05-05 12:47 54.51066 -1.42688 138 ft 12 kts 246°
2026-05-05 12:47 54.51058 -1.42815 138 ft 9 kts 270°
2026-05-05 12:48 54.51060 -1.42950 138 ft 12 kts 271°
2026-05-05 12:48 54.51062 -1.43050 138 ft 7 kts 272°
2026-05-05 12:48 54.51065 -1.43152 138 ft 4 kts 272°
2026-05-05 12:48 54.51068 -1.43201 138 ft 2 kts 295°
2026-05-05 12:49 54.51085 -1.43202 138 ft 4 kts 16°
2026-05-05 12:49 54.51121 -1.43170 138 ft 6 kts 42°
2026-05-05 12:49 54.51139 -1.43124 138 ft 3 kts 59°
2026-05-05 12:49 54.51149 -1.43108 138 ft 1 kts 14°
2026-05-05 12:50 54.51164 -1.43113 138 ft 2 kts 335°
2026-05-05 12:50 54.51172 -1.43121 138 ft 0 kts 323°
2026-05-05 12:50 54.51175 -1.43131 138 ft 0 kts 298°
2026-05-05 12:50 54.51176 -1.43141 138 ft 0 kts 275°
2026-05-05 12:51 54.51174 -1.43147 138 ft 0 kts 244°
2026-05-05 12:51 54.51174 -1.43150 138 ft 0 kts 239°